This is the latest recevied weather packets stored in our database for station/object I1SXT-13. If no packets are shown the sender has not sent any weather packets the latest 10 day(s).
| Time | Temp. | Humidity | Pressure | Rain* | Wind** | Luminosity | Snow |
|---|---|---|---|---|---|---|---|
| 1777382667 | 22.22° C | 60% | 1016 hPa | 0 mm | - | - | - |
| 1777382370 | 22.22° C | 61% | 1017 hPa | 0 mm | - | - | - |
| 1777382066 | 21.67° C | 58% | 1015.9 hPa | 0 mm | - | - | - |
| 1777381769 | 22.22° C | 57% | 1016 hPa | 0 mm | - | - | - |
| 1777381465 | 22.22° C | 58% | 1016.6 hPa | 0 mm | - | - | - |
| 1777381168 | 22.22° C | 56% | 1016.7 hPa | 0 mm | - | - | - |
| 1777379668 | 21.11° C | 64% | 1017.3 hPa | 0 mm | - | - | - |
| 1777379364 | 21.11° C | 63% | 1016.9 hPa | 0 mm | - | - | - |
| 1777378770 | 21.11° C | 64% | 1015.9 hPa | 0 mm | - | - | - |
| 1777378168 | 20.56° C | 63% | 1016.7 hPa | 0 mm | - | - | - |
| 1777377864 | 20.56° C | 63% | 1017.4 hPa | 0 mm | - | - | - |
| 1777377567 | 20.56° C | 66% | 1017.4 hPa | 0 mm | - | - | - |
| 1777377270 | 20.56° C | 65% | 1016.9 hPa | 0 mm | - | - | - |
| 1777376966 | 20.56° C | 64% | 1015.9 hPa | 0 mm | - | - | - |
| 1777376365 | 20.56° C | 67% | 1016.4 hPa | 0 mm | - | - | - |
| 1777376067 | 20° C | 68% | 1016.6 hPa | 0 mm | - | - | - |
| 1777375770 | 19.44° C | 67% | 1017.2 hPa | 0 mm | - | - | - |
| 1777374264 | 19.44° C | 68% | 1017.2 hPa | 0 mm | - | - | - |
| 1777372467 | 18.89° C | 69% | 1016.9 hPa | 0 mm | - | - | - |
| 1777372169 | 18.89° C | 70% | 1018.1 hPa | 0 mm | - | - | - |
| 1777371865 | 18.89° C | 70% | 1017.2 hPa | 0 mm | - | - | - |
| 1777371568 | 18.89° C | 70% | 1016.8 hPa | 0 mm | - | - | - |
| 1777371264 | 18.89° C | 72% | 1017.9 hPa | 0 mm | - | - | - |
| 1777370967 | 18.33° C | 71% | 1017 hPa | 0 mm | - | - | - |
| 1777370366 | 18.89° C | 71% | 1017.8 hPa | 0 mm | - | - | - |
* Rain since midnight (hover to see other rain measurements)
** Current wind speed in m/s (hover to see current wind gust speed)